Temp
72 76 82 83 83 83 83 83 83 83 83 83 83 83 83 83 83 83 83 84 84 84 84 85 84 84 84 84 84 84 84 83 83 83 83 83 83 83 83 83 82 83 82
75 78 81 82 83 83 83 83 83 83 83 83 83 83 83 83 83 83 83 84 84 84 84 84 84 83 84 84 84 84 84 83 84 84 83 84 83 83 83 83 82 83 82
76 77 80 82 83 83 83 83 83 83 83 83 83 83 83 83 83 83 83 84 84 84 84 84 84 84 83 83 84 83 82 82 83 83 82 82 83 83 83 83 82 82 82
76 76 77 81 83 82 82 83 83 83 82 83 83 83 83 83 84 84 84 84 84 84 84 84 85 84 84 83 83 83 83 82 81 80 77 80 84 83 83 82 82 81 81
74 76 78 82 83 83 83 82 82 82 83 83 83 83 83 83 84 84 84 84 84 84 84 84 84 84 83 83 83 83 82 82 81 78 77 78 81 83 82 82 82 82 81
75 78 81 83 83 83 82 82 83 82 83 82 83 83 83 83 83 83 83 83 84 84 83 84 84 83 83 82 82 82 81 81 79 77 77 80 80 82 82 82 82 81 81
74 76 79 82 83 82 83 82 82 82 83 82 83 83 83 83 83 83 83 83 83 83 83 83 84 84 83 83 83 82 81 81 76 76 77 78 81 81 82 81 81 81 81
74 75 78 82 82 83 82 82 83 83 83 82 83 83 83 83 83 83 83 83 83 83 83 83 83 83 83 83 83 82 82 81 78 77 78 79 80 81 81 81 81 81 81
75 75 75 77 80 83 83 83 83 83 83 83 83 83 83 83 83 83 83 83 83 83 83 83 83 83 83 83 83 82 82 80 78 78 80 79 80 81 82 81 81 81 81
74 74 74 74 76 76 78 83 83 83 83 83 83 83 83 83 83 83 82 82 83 83 83 83 83 83 83 83 83 83 82 80 79 78 78 80 80 82 81 81 81 80 80
73 73 73 73 73 74 76 80 82 83 83 83 83 83 82 77 76 78 82 83 83 83 83 83 83 83 82 83 83 82 80 78 78 78 79 80 81 81 81 80 80 80 80
70 71 71 72 72 74 79 76 76 78 76 75 75 76 76 76 76 80 81 84 83 83 83 83 83 83 79 78 79 79 78 78 78 78 78 80 81 81 80 80 80 79 79
70 71 71 71 72 73 75 73 73 74 73 72 74 75 75 75 74 72 73 74 76 80 78 79 78 78 77 78 78 78 78 78 78 78 79 80 80 81 80 80 79 79 79
70 71 72 72 72 72 73 73 74 74 72 72 74 74 73 73 72 71 71 72 73 75 75 75 76 76 77 78 78 78 77 78 77 78 78 80 80 80 80 80 79 79 79
70 72 73 73 72 73 73 73 73 74 74 74 74 74 73 72 72 72 70 72 72 73 74 74 75 76 76 78 79 78 78 78 78 78 78 81 80 80 80 80 80 79 78
72 73 74 74 73 74 73 73 73 74 75 73 73 73 74 71 71 72 70 72 73 74 73 75 75 76 76 77 78 79 79 78 78 78 79 80 80 80 80 80 80 79 79
73 74 74 74 75 74 73 74 73 74 76 74 74 75 75 73 73 73 73 72 74 75 75 75 75 76 76 78 76 78 79 78 78 78 78 79 80 80 80 80 80 79 79
74 73 74 80 76 74 73 74 75 74 75 74 74 74 75 76 74 73 74 74 75 75 75 75 75 75 75 75 76 77 77 77 77 78 78 78 78 80 80 80 80 79 79
74 73 73 75 75 74 74 75 75 75 76 76 75 76 76 77 77 74 74 74 75 75 76 76 75 76 74 75 77 77 76 76 77 80 77 78 78 79 78 78 79 79 79
74 74 74 75 74 74 74 74 75 75 76 77 76 78 78 78 77 75 75 75 75 76 75 75 75 74 75 76 80 78 76 76 77 76 78 79 78 78 78 77 78 79 79
75 74 73 73 73 72 73 73 72 74 75 76 76 80 78 78 78 75 75 75 75 75 75 76 74 74 74 75 75 75 75 77 76 76 77 77 77 78 77 76 76 77 77
75 74 73 73 72 73 74 74 74 74 75 76 77 78 78 79 78 77 74 74 74 74 74 74 75 72 73 73 73 72 72 74 75 76 76 76 76 77 77 76 76 75 76
75 74 74 73 72 73 74 74 74 75 75 75 75 76 78 79 78 77 76 75 73 73 73 73 74 74 72 72 72 74 70 70 69 73 73 74 74 75 76 76 76 75 75
76 76 74 73 72 73 74 75 74 74 73 74 75 76 78 79 79 78 76 76 73 72 72 74 74 73 72 72 71 72 70 72 71 70 72 72 72 72 72 73 75 75 75
78 77 75 73 72 73 73 74 74 73 74 74 74 75 76 77 79 80 78 77 74 72 72 73 73 72 72 71 71 70 69 68 67 68 67 69 71 72 73 72 73 74 74
79 78 77 73 72 72 73 74 74 74 73 73 73 74 74 76 78 79 79 77 75 73 72 72 72 71 70 70 70 69 70 71 69 68 67 67 67 71 72 72 72 72 73
MSLP
1014.48 1014.20 1014.01 1014.10 1014.37 1014.55 1014.73 1014.86 1014.97 1015.11 1015.21 1015.40 1015.47 1015.50 1015.55 1015.68 1015.82 1015.88 1015.95 1015.95 1016.06 1016.09 1016.19 1016.27 1016.44 1016.40 1016.58 1016.62 1016.66 1016.73 1016.94 1017.11 1017.20 1017.29 1017.30 1017.50 1017.72 1017.82 1017.98 1018.04 1018.10 1018.09 1018.22
1014.03 1014.14 1014.22 1014.35 1014.48 1014.71 1014.87 1014.99 1015.17 1015.17 1015.26 1015.40 1015.50 1015.54 1015.71 1015.86 1016.02 1016.14 1016.15 1016.19 1016.32 1016.36 1016.46 1016.59 1016.75 1016.77 1016.84 1016.87 1016.89 1017.03 1017.21 1017.29 1017.37 1017.52 1017.73 1017.88 1018.06 1018.22 1018.21 1018.31 1018.38 1018.43 1018.58
1014.25 1014.29 1014.41 1014.49 1014.62 1014.87 1015.11 1015.16 1015.32 1015.46 1015.53 1015.63 1015.65 1015.77 1015.95 1016.08 1016.25 1016.39 1016.47 1016.53 1016.65 1016.73 1016.76 1016.84 1016.95 1017.05 1017.15 1017.15 1017.21 1017.42 1017.69 1017.86 1017.99 1018.13 1018.34 1018.49 1018.58 1018.53 1018.50 1018.59 1018.69 1018.79 1018.92
1014.25 1014.56 1014.68 1014.69 1014.80 1015.06 1015.19 1015.27 1015.40 1015.53 1015.73 1015.80 1015.90 1016.04 1016.16 1016.32 1016.43 1016.59 1016.73 1016.80 1016.94 1017.02 1017.06 1017.10 1017.12 1017.35 1017.45 1017.57 1017.80 1018.13 1018.32 1018.39 1018.58 1018.83 1018.97 1018.93 1018.84 1018.90 1018.82 1018.96 1019.15 1019.03 1019.11
1014.62 1014.80 1014.83 1014.86 1015.01 1015.20 1015.35 1015.54 1015.67 1015.80 1015.87 1016.00 1016.19 1016.28 1016.34 1016.44 1016.62 1016.85 1017.01 1017.16 1017.24 1017.27 1017.33 1017.41 1017.50 1017.64 1017.80 1018.01 1018.20 1018.48 1018.58 1018.72 1018.95 1019.18 1019.30 1019.31 1019.19 1019.05 1019.03 1019.24 1019.32 1019.29 1019.36
1014.77 1014.87 1014.91 1015.03 1015.19 1015.40 1015.70 1015.77 1015.92 1015.95 1016.17 1016.43 1016.53 1016.62 1016.67 1016.83 1016.93 1017.06 1017.34 1017.41 1017.47 1017.59 1017.75 1017.82 1017.91 1018.01 1018.11 1018.35 1018.52 1018.68 1018.89 1018.96 1019.20 1019.39 1019.50 1019.47 1019.35 1019.16 1019.24 1019.26 1019.36 1019.53 1019.60
1015.14 1015.08 1015.17 1015.29 1015.52 1015.68 1015.87 1016.12 1016.30 1016.40 1016.60 1016.72 1016.85 1016.89 1017.03 1017.15 1017.27 1017.34 1017.44 1017.60 1017.79 1017.85 1017.99 1018.11 1018.25 1018.32 1018.52 1018.70 1018.79 1018.88 1019.12 1019.28 1019.63 1019.72 1019.72 1019.61 1019.45 1019.39 1019.43 1019.54 1019.74 1019.89 1019.91
1015.49 1015.39 1015.41 1015.57 1015.85 1015.91 1016.11 1016.39 1016.49 1016.61 1016.73 1016.92 1016.97 1017.15 1017.32 1017.35 1017.43 1017.60 1017.58 1017.73 1017.99 1018.13 1018.30 1018.45 1018.53 1018.71 1018.85 1018.95 1019.09 1019.36 1019.41 1019.63 1019.87 1019.87 1019.92 1019.91 1019.79 1019.72 1019.78 1019.89 1019.94 1019.98 1020.01
1015.67 1015.76 1015.83 1016.00 1016.11 1016.24 1016.48 1016.67 1016.71 1016.82 1016.93 1017.10 1017.29 1017.35 1017.45 1017.56 1017.61 1017.64 1017.73 1017.94 1018.13 1018.41 1018.56 1018.58 1018.79 1018.98 1019.20 1019.35 1019.43 1019.52 1019.68 1019.95 1020.11 1020.21 1020.23 1020.26 1020.12 1020.08 1020.06 1020.05 1020.12 1020.16 1020.16
1016.04 1016.08 1016.23 1016.38 1016.53 1016.69 1016.68 1016.81 1016.96 1017.02 1017.09 1017.24 1017.40 1017.49 1017.59 1017.49 1017.53 1017.67 1017.82 1018.00 1018.28 1018.51 1018.63 1018.78 1019.13 1019.45 1019.58 1019.68 1019.69 1019.66 1019.93 1020.22 1020.43 1020.46 1020.46 1020.45 1020.38 1020.26 1020.20 1020.18 1020.25 1020.33 1020.32
1016.40 1016.52 1016.54 1016.75 1016.93 1017.02 1017.01 1016.95 1017.05 1017.08 1017.21 1017.34 1017.48 1017.55 1017.68 1017.76 1017.85 1017.96 1017.99 1018.09 1018.38 1018.61 1018.80 1019.05 1019.46 1019.73 1019.82 1019.83 1019.95 1020.03 1020.19 1020.54 1020.67 1020.71 1020.68 1020.56 1020.48 1020.47 1020.51 1020.52 1020.63 1020.61 1020.59
1016.57 1016.71 1016.85 1017.01 1017.14 1017.23 1017.11 1017.20 1017.31 1017.30 1017.49 1017.71 1017.83 1017.92 1018.05 1018.13 1018.21 1018.18 1018.21 1018.25 1018.52 1018.77 1019.02 1019.34 1019.67 1019.94 1020.19 1020.38 1020.46 1020.51 1020.58 1020.70 1020.76 1020.97 1020.88 1020.68 1020.69 1020.73 1020.80 1020.91 1021.00 1021.02 1021.12
1016.36 1016.77 1016.95 1017.12 1017.22 1017.26 1017.31 1017.50 1017.68 1017.72 1017.77 1017.94 1017.88 1018.00 1018.20 1018.31 1018.43 1018.76 1018.89 1018.94 1018.95 1019.14 1019.34 1019.52 1019.90 1020.28 1020.40 1020.46 1020.55 1020.64 1020.79 1020.92 1020.98 1020.97 1021.00 1020.93 1020.91 1021.02 1021.15 1021.22 1021.35 1021.39 1021.45
1016.46 1016.63 1016.87 1016.93 1017.22 1017.36 1017.39 1017.67 1017.73 1017.75 1017.90 1018.04 1018.03 1018.12 1018.41 1018.65 1018.94 1019.20 1019.38 1019.43 1019.45 1019.55 1019.67 1019.82 1020.13 1020.43 1020.57 1020.62 1020.78 1020.97 1020.95 1020.99 1021.20 1021.25 1021.17 1021.18 1021.28 1021.31 1021.41 1021.54 1021.62 1021.70 1021.72
1016.49 1016.58 1016.70 1016.80 1017.08 1017.26 1017.46 1017.68 1017.77 1017.85 1017.99 1018.10 1018.09 1018.28 1018.54 1018.80 1019.02 1019.28 1019.61 1019.58 1019.67 1019.86 1020.03 1020.25 1020.50 1020.66 1020.74 1020.88 1020.97 1021.00 1021.06 1021.13 1021.16 1021.26 1021.31 1021.26 1021.38 1021.40 1021.54 1021.65 1021.66 1021.65 1021.62
1016.34 1016.41 1016.61 1016.89 1016.92 1017.18 1017.38 1017.58 1017.70 1017.80 1017.86 1018.16 1018.21 1018.37 1018.73 1018.95 1019.11 1019.29 1019.56 1019.59 1019.71 1019.94 1020.26 1020.55 1020.72 1020.81 1020.90 1021.01 1020.96 1020.93 1020.85 1020.93 1021.11 1021.26 1021.36 1021.44 1021.43 1021.54 1021.59 1021.65 1021.66 1021.65 1021.72
1015.91 1016.12 1016.50 1016.75 1016.88 1017.05 1017.22 1017.50 1017.74 1017.83 1017.79 1018.09 1018.30 1018.37 1018.67 1018.97 1019.14 1019.27 1019.52 1019.74 1019.73 1019.98 1020.25 1020.57 1020.71 1020.78 1020.82 1020.77 1020.83 1020.72 1020.75 1020.85 1021.00 1021.19 1021.47 1021.54 1021.51 1021.58 1021.64 1021.60 1021.62 1021.66 1021.69
1015.56 1015.96 1016.03 1016.67 1016.88 1017.12 1017.24 1017.32 1017.53 1017.80 1017.79 1017.96 1018.21 1018.52 1018.63 1018.83 1019.08 1019.43 1019.52 1019.71 1019.74 1020.05 1020.35 1020.54 1020.66 1020.84 1020.92 1020.88 1020.87 1020.77 1020.70 1020.84 1020.98 1021.22 1021.47 1021.53 1021.62 1021.62 1021.60 1021.60 1021.59 1021.61 1021.59
1015.39 1015.82 1016.14 1016.34 1016.77 1017.08 1017.17 1017.28 1017.38 1017.56 1017.71 1017.82 1018.09 1018.35 1018.43 1018.63 1018.86 1019.17 1019.41 1019.73 1019.74 1020.05 1020.37 1020.49 1020.69 1020.74 1020.89 1020.89 1020.83 1020.77 1020.82 1020.90 1020.98 1021.05 1021.30 1021.43 1021.52 1021.52 1021.60 1021.59 1021.48 1021.46 1021.42
1015.19 1015.55 1015.84 1016.31 1016.55 1017.09 1017.24 1017.37 1017.50 1017.62 1017.76 1017.78 1017.98 1017.98 1018.25 1018.28 1018.56 1019.02 1019.27 1019.55 1019.74 1019.99 1020.29 1020.44 1020.61 1020.78 1020.91 1020.94 1020.85 1020.77 1020.84 1020.83 1020.86 1021.02 1021.03 1021.13 1021.26 1021.33 1021.41 1021.40 1021.30 1021.12 1021.18
1015.21 1015.64 1015.80 1016.24 1016.55 1017.01 1017.44 1017.73 1018.00 1017.97 1017.94 1018.12 1018.07 1017.82 1018.01 1018.13 1018.39 1018.87 1019.22 1019.31 1019.47 1019.91 1020.10 1020.39 1020.68 1020.86 1020.96 1020.99 1021.08 1021.13 1020.87 1020.64 1020.69 1020.76 1020.82 1020.85 1020.89 1020.92 1020.98 1020.96 1020.93 1020.91 1020.91
1014.75 1015.27 1015.77 1016.09 1016.51 1016.82 1017.17 1017.35 1017.49 1017.65 1017.79 1017.96 1018.11 1018.25 1018.33 1018.20 1018.31 1018.61 1019.14 1019.52 1019.58 1019.92 1020.12 1020.42 1020.68 1020.94 1021.20 1021.24 1021.31 1021.48 1021.29 1020.94 1020.71 1020.54 1020.55 1020.70 1020.61 1020.68 1020.56 1020.51 1020.50 1020.44 1020.46
1014.45 1014.90 1015.35 1015.76 1016.35 1016.68 1017.04 1017.37 1017.63 1017.76 1017.93 1018.26 1018.44 1018.42 1018.33 1018.34 1018.40 1018.62 1019.00 1019.25 1019.57 1019.81 1020.32 1020.48 1020.38 1020.67 1021.04 1021.26 1021.21 1021.36 1021.72 1021.66 1021.37 1020.76 1020.60 1020.58 1020.46 1020.44 1020.18 1020.06 1019.93 1019.92 1019.99
1013.80 1014.31 1014.89 1015.44 1015.86 1016.46 1016.87 1017.22 1017.45 1017.65 1018.01 1018.13 1018.10 1018.29 1018.31 1018.24 1018.54 1018.76 1019.18 1019.39 1019.70 1019.94 1020.19 1020.27 1020.33 1020.59 1020.77 1021.24 1021.37 1021.36 1021.52 1021.64 1021.82 1021.46 1020.76 1020.54 1020.41 1020.23 1020.02 1019.86 1019.61 1019.47 1019.58
1013.39 1013.90 1014.49 1014.95 1015.54 1015.85 1016.44 1016.92 1017.32 1017.71 1017.69 1017.84 1018.13 1018.34 1018.53 1018.43 1018.53 1018.73 1018.93 1019.29 1019.63 1019.87 1020.01 1020.18 1020.33 1020.48 1020.72 1021.02 1021.23 1021.43 1021.57 1021.73 1021.88 1022.07 1021.68 1020.98 1020.39 1020.00 1019.77 1019.64 1019.41 1019.24 1019.27
1012.75 1013.53 1014.25 1014.66 1015.23 1015.45 1015.94 1016.63 1016.93 1017.35 1017.68 1018.04 1018.29 1018.49 1018.62 1018.66 1018.64 1018.65 1018.85 1019.25 1019.65 1019.86 1020.02 1020.08 1020.29 1020.65 1020.78 1020.88 1021.09 1021.29 1021.44 1021.61 1021.83 1022.01 1022.05 1021.52 1021.16 1020.16 1019.72 1019.44 1019.29 1019.12 1019.07
Wind_Speed
3 5 10 13 12 12 12 12 12 12 12 12 12 13 14 13 11 11 12 11 12 12 13 13 13 14 15 17 15 15 15 15 14 14 15 14 14 13 13 12 11 9 11
6 6 12 12 13 12 12 13 13 12 12 12 12 12 13 13 13 12 11 12 12 11 12 13 13 13 14 14 14 14 13 14 14 15 14 15 14 12 11 12 10 9 11
7 5 7 12 13 13 12 11 12 11 11 11 13 13 13 13 13 12 12 12 12 11 10 12 12 14 11 12 12 13 12 12 13 14 13 7 7 11 12 11 11 9 10
7 5 5 11 12 12 12 11 11 11 12 12 14 13 13 12 13 13 12 12 11 11 10 11 11 12 11 10 10 12 13 12 11 11 6 6 7 11 12 11 10 9 9
6 5 7 12 12 13 12 11 11 12 13 13 13 12 12 12 11 11 12 12 11 10 10 9 10 10 10 9 9 10 7 9 10 8 6 5 4 9 11 10 8 9 9
5 6 10 13 13 12 12 11 11 11 11 11 12 11 10 10 10 10 10 8 10 9 9 9 10 10 9 8 8 7 7 7 9 6 5 5 4 9 9 10 10 9 8
5 5 6 11 12 12 12 10 10 10 10 11 11 11 9 8 9 10 9 9 8 7 7 8 9 10 9 8 5 5 9 10 5 4 4 4 4 7 8 8 8 7 5
6 4 4 11 11 11 12 11 10 9 8 10 10 9 8 7 7 7 7 8 7 6 7 7 7 8 7 7 8 10 10 8 5 4 4 3 5 6 7 6 6 6 6
4 4 4 5 8 12 11 10 10 9 8 7 7 6 7 7 5 6 6 6 7 7 6 7 7 6 6 6 7 5 7 7 4 3 3 2 3 6 7 7 5 5 5
3 4 4 3 4 4 4 9 8 8 7 6 6 5 4 4 6 6 7 9 10 9 8 7 7 5 6 7 6 8 7 7 4 3 3 2 4 6 6 7 7 6 6
3 3 4 4 4 3 3 5 7 7 6 5 3 4 2 2 3 6 5 9 11 11 10 9 7 5 6 6 7 7 6 2 3 2 2 4 4 6 6 7 7 7 9
5 3 4 4 4 3 2 3 3 2 3 2 2 3 2 2 1 4 5 10 10 11 10 8 7 6 7 4 3 5 2 3 2 3 1 2 4 5 6 7 8 8 9
5 3 5 4 4 4 2 2 1 1 2 1 1 2 2 2 4 3 3 3 3 7 3 5 5 3 4 3 2 2 1 1 1 1 2 1 4 5 5 6 7 7 8
6 6 5 6 5 4 2 2 3 2 2 1 2 3 3 2 3 3 2 3 3 2 4 3 3 3 3 2 2 3 1 2 1 1 2 2 4 4 5 4 5 7 8
6 6 6 6 6 4 2 3 2 2 2 2 2 3 3 3 3 3 3 2 3 3 3 3 3 2 2 1 1 1 2 3 3 1 1 4 5 4 4 4 4 4 4
6 7 6 6 6 5 4 4 3 2 2 2 2 3 4 3 4 3 3 2 3 3 3 2 2 1 1 0 3 3 4 4 4 3 2 3 5 5 4 3 2 1 1
6 6 7 6 6 6 5 4 3 3 3 2 1 4 4 4 3 4 3 3 2 2 4 3 2 1 1 2 4 4 3 4 4 5 3 3 3 6 5 4 4 4 3
6 8 8 6 6 6 5 4 3 4 3 3 2 2 4 4 5 4 3 2 3 3 2 2 2 1 2 3 2 3 2 3 4 4 4 3 3 3 5 7 6 6 7
8 7 6 8 8 6 6 4 3 4 3 3 3 3 5 5 5 4 3 3 3 3 2 2 2 2 2 2 3 1 1 2 3 3 5 6 6 5 4 6 9 9 10
8 8 7 6 7 6 4 3 2 2 2 2 2 3 4 3 5 5 3 4 4 2 1 2 2 1 0 2 3 2 2 2 3 4 6 6 6 7 6 7 6 7 13
6 7 8 7 6 5 2 3 2 3 2 1 2 2 3 4 5 5 3 3 3 4 3 2 2 2 2 1 2 2 2 3 5 6 5 6 7 8 8 8 6 6 6
11 11 8 9 6 4 3 2 2 2 2 2 2 2 4 4 5 4 6 4 3 3 3 3 2 2 1 0 2 1 3 3 2 5 5 6 8 6 8 9 9 9 8
12 10 10 10 9 5 5 3 3 3 3 2 1 2 3 4 4 6 4 4 4 3 3 3 4 3 3 0 2 2 0 2 3 1 2 4 6 5 7 8 9 10 9
14 11 8 7 10 7 7 3 4 4 4 3 3 2 2 4 4 6 7 5 5 3 4 2 2 2 3 2 1 2 2 1 0 4 2 3 3 6 7 6 7 9 8
14 12 10 8 8 8 8 6 5 4 2 2 2 4 3 2 4 4 5 5 4 3 3 4 2 3 2 3 2 2 1 2 2 2 4 4 3 3 5 6 6 6 7
14 12 10 9 7 8 9 7 8 7 6 4 3 3 3 2 2 4 4 4 5 4 4 3 3 3 3 2 2 2 2 2 2 2 2 3 2 4 3 4 4 5 5
Wind_Direction
188 163 148 134 127 122 120 133 132 123 119 114 108 107 107 109 109 110 110 105 97 95 96 94 91 89 97 96 98 100 99 98 104 104 104 101 94 92 92 92 93 96 97
137 157 147 131 124 124 120 127 134 127 125 124 121 119 116 114 114 106 107 106 100 96 98 100 98 94 100 107 108 101 97 89 88 103 104 94 94 101 100 105 97 83 88
127 133 133 139 137 131 128 129 133 129 127 130 124 114 112 111 109 110 106 105 104 105 105 107 106 109 106 108 107 100 89 81 82 81 80 79 83 89 84 75 76 88 83
127 125 135 134 132 129 127 135 135 136 124 120 116 121 120 112 120 115 109 106 105 104 114 117 121 109 115 111 106 97 91 80 71 68 52 55 88 87 85 82 78 66 76
116 124 148 139 141 136 134 132 128 127 127 127 127 124 121 119 114 118 115 116 110 112 113 118 121 113 111 113 105 99 91 79 80 76 65 67 70 91 94 79 71 83 67
133 132 148 141 137 133 131 127 123 126 126 124 124 119 129 122 129 118 112 110 120 123 116 117 112 110 109 101 94 95 88 100 75 64 63 71 74 80 74 69 69 65 59
126 139 142 143 131 125 125 119 118 117 116 121 122 128 118 112 111 108 108 106 103 110 115 117 112 115 108 94 93 106 78 100 80 78 70 56 70 77 72 69 69 69 72
128 143 140 137 134 133 125 130 128 126 124 123 121 115 117 111 104 108 118 125 126 122 111 102 106 105 96 89 87 107 99 101 85 83 80 73 87 80 65 66 74 62 53
123 119 101 115 148 139 134 136 135 128 123 121 122 130 130 133 143 153 152 138 133 129 118 122 110 115 112 102 71 96 99 109 106 91 81 63 71 75 59 54 47 45 39
116 120 129 127 91 95 135 139 136 136 138 139 143 144 140 156 171 148 131 154 145 153 155 155 144 133 119 105 79 71 103 90 85 69 62 42 74 55 44 35 27 21 11
127 147 143 134 108 115 123 156 141 144 156 159 154 167 121 40 38 87 113 128 146 156 160 160 151 137 121 109 77 70 100 86 73 63 37 41 50 55 43 33 29 31 53
169 188 164 143 142 157 170 111 132 115 100 77 48 14 57 106 133 82 113 123 136 150 154 147 136 132 80 62 40 59 86 87 77 60 9 58 71 74 63 56 51 49 48
166 164 182 169 171 179 174 141 97 89 110 68 329 157 126 100 76 68 65 61 67 100 91 103 96 96 109 102 81 66 76 109 107 113 340 140 123 103 87 72 63 60 55
174 176 190 178 166 196 197 145 159 178 124 126 149 161 131 106 94 90 86 80 84 101 103 99 101 106 91 101 95 67 107 157 152 160 250 210 131 111 92 86 75 63 55
181 178 183 174 173 181 195 161 169 183 145 165 144 148 140 142 133 102 103 114 108 108 106 106 103 122 123 109 76 143 175 189 198 209 209 222 161 144 145 124 96 79 73
187 181 173 187 176 178 186 181 195 166 167 173 170 152 160 140 144 132 123 135 133 142 124 115 131 188 216 277 261 248 229 215 203 205 217 249 183 180 185 152 132 117 94
187 176 178 185 186 182 191 182 181 192 171 168 210 180 158 168 160 160 146 157 155 138 121 138 162 211 276 298 286 277 240 227 207 202 217 231 226 211 211 205 210 224 239
170 181 168 173 187 179 177 179 163 171 183 160 203 212 202 180 166 166 153 169 156 138 138 158 168 210 248 254 275 273 238 211 201 206 220 230 230 234 235 230 228 232 243
190 177 180 163 178 189 161 169 166 174 191 188 183 198 228 193 176 161 165 157 155 132 167 188 189 191 204 235 259 287 258 219 209 210 229 233 232 235 240 248 239 235 245
180 186 174 172 171 162 140 119 86 130 213 177 193 232 207 198 155 157 155 150 153 159 172 176 175 164 281 270 299 336 262 228 227 224 231 236 233 236 237 241 247 245 246
172 180 174 162 185 140 137 137 143 176 166 147 203 275 246 165 158 142 122 117 128 138 164 132 107 111 50 70 71 333 300 259 246 234 226 234 236 236 235 237 238 244 249
181 188 180 169 173 177 148 172 143 160 140 122 145 190 226 189 168 151 149 144 158 147 127 177 173 107 91 56 155 108 330 322 306 241 228 238 246 237 243 243 243 241 241
190 187 192 171 173 182 167 117 82 74 66 92 176 190 200 195 173 148 166 155 160 147 171 202 151 152 148 46 56 134 31 259 320 322 251 251 250 236 246 253 249 244 240
195 186 192 175 166 173 169 158 157 175 150 202 170 154 208 165 172 160 161 171 169 172 186 200 136 143 126 167 17 61 55 117 118 326 328 310 273 250 248 256 259 250 243
181 184 191 179 174 163 165 175 169 175 186 121 137 155 163 165 177 176 159 159 162 179 183 172 154 131 126 149 177 165 111 73 92 128 290 315 311 277 266 256 255 260 251
183 184 188 174 190 170 168 183 176 184 165 152 157 172 187 178 188 183 168 173 167 175 175 181 142 149 168 138 165 173 175 169 189 181 243 285 282 298 293 287 270 258 257